Location: Unspecified
(44.0704°N, 88.6889°W)
Time: 15:21:54
(UTC+02:00)

Courier 1B Rocket - Visible Passes

Search period start: 20 June 2019 00:00
Search period end: 30 June 2019 00:00
Orbit: 920 x 1202 km, 28.2° (Epoch: 19 June)

Date Brightness Start Highest point End Pass type
(mag) Time Alt. Az. Time Alt. Az. Time Alt. Az.
22 Jun 7.1 11:08:55 10° S 11:10:33 11° SSE 11:12:11 10° SE visible
24 Jun 6.9 10:57:45 10° SSW 11:01:26 15° SSE 11:05:01 10° SE visible
25 Jun 7.0 10:00:11 12° SSE 10:00:41 12° SSE 10:03:14 10° SE visible
26 Jun 6.6 10:48:57 13° SSW 10:52:19 18° S 10:56:48 10° SE visible
27 Jun 6.7 09:51:23 16° SSE 09:51:31 16° SSE 09:55:36 10° SE visible
28 Jun 7.2 08:53:49 10° SE 08:53:49 10° SE 08:53:57 10° SE visible
28 Jun 6.5 10:40:09 16° SSW 10:43:12 21° S 10:48:13 10° SE visible
29 Jun 6.6 09:42:37 19° SSE 09:42:37 19° SSE 09:47:16 10° SE visible
29 Jun 6.5 11:29:35 10° SW 11:34:54 22° S 11:39:59 10° SE visible
